Regional Weather Roundup
Issued by NWS Green Bay, WI

Home | Current Version | Previous Version | Graphics & Text | Print | Product List | Glossary Off
Versions: 1 2 3 4 5 6 7 8 9 10 11 12 13 14 15 16 17 18 19 20 21 22 23 24 25 26 27 28 29 30 31 32 33 34 35 36 37 38 39 40 41 42 43 44 45 46 47 48 49 50

357
ASUS43 KGRB 210100
RWRGRB

NORTH-CENTRAL AND NORTHEAST WISCONSIN REGIONAL WEATHER ROUNDUP
NATIONAL WEATHER SERVICE GREEN BAY WI
700 PM CST MON FEB 20 2017

WIZ005-009-010>012-018-019-210200-
NORTH CENTRAL WISCONSIN

CITY           SKY/WX    TMP DP  RH WIND       PRES   REMARKS
IRONWOOD       LGT RAIN  48  46  93 S14G24    29.67S
MANITOWISH WTR NOT AVBL
ARBOR VITAE    NOT AVBL
EAGLE RIVER    NOT AVBL
LAND O LAKES   RAIN      45  44  97 S10       29.77F
RHINELANDER    LGT RAIN  47  46  97 S9G21     29.76F FOG
PHILLIPS       HVY RAIN  47  47 100 S13G18    29.71S
ANTIGO         NOT AVBL
TOMAHAWK       NOT AVBL
MERRILL        NOT AVBL
$$

WIZ013-073-210200-
NORTHEAST WISCONSIN

CITY           SKY/WX    TMP DP  RH WIND       PRES   REMARKS
IRON MOUNTAIN  LGT RAIN  40  34  79 SE12      29.83F
MARINETTE      RAIN      46  37  71 S12G17    29.91F
OCONTO         CLOUDY    44  39  81 S12       29.89F
$$

WIZ017-030-035>037-045-210200-
CENTRAL WISCONSIN

CITY           SKY/WX    TMP DP  RH WIND       PRES   REMARKS
MEDFORD        NOT AVBL
WAUSAU         RAIN      47  46  97 S14       29.77S FOG
MOSINEE        RAIN      46  46 100 S15G23    29.79F
MARSHFIELD     RAIN      51  50  96 S17       29.76S FOG
WISC RAPIDS    RAIN      53  53 100 S7        29.81R FOG
STEVENS POINT  NOT AVBL
WAUPACA        DRIZZLE   50  48  92 SE7       29.84F
SHAWANO        LGT RAIN  49  46  89 S13G21    29.86F
CLINTONVILLE   RAIN      46  45  93 SE14G21   29.84F
WAUTOMA        LGT RAIN  51  49  92 SE10      29.84F FOG
$$

WIZ038-039-048-051-210200-
FOX VALLEY

CITY           SKY/WX    TMP DP  RH WIND       PRES   REMARKS
NWS GREEN BAY  RAIN      49  45  86 SE22      29.89F
APPLETON       LGT RAIN  46  43  87 SE15      29.87F FOG
OSHKOSH        CLOUDY    51  45  79 SE16      29.85F
FOND DU LAC    LGT RAIN  53  45  74 SE14      29.87F
$$

WIZ022-050-052-210200-
EAST CENTRAL WISCONSIN

CITY           SKY/WX    TMP DP  RH WIND       PRES   REMARKS
EPHRAIM        NOT AVBL
WASHINGTON ISL CLOUDY    46  33  60 S14G21    29.92F
STURGEON BAY   CLOUDY    49  36  61 SE20G29   29.92F
MANITOWOC      NOT AVBL
SHEBOYGAN      CLOUDY    50  40  68 S15       29.94R
$$

LMZ563-521-522-541>543-210200-
LAKESHORE

STATION/POSITION TIME  TEMP    WIND        PRES    VSBY  WAVE
                       AIR SEA DIR/SP/G                  HT/PER
                 (UTC) (F)     (DEG/KT/KT) (MB)    (MI)  (FT/S)
SHEBOYGAN LKSHOR 0000   41     160/ 12/ 14 1013.8F
KEWAUNEE LKSHORE 0030   41     190/ 10/ 11 1013.6F
NORTHPORT PIER   0040   39     150/ 13/ 17 1013.5F
SISTER BAY LKSHO 2350   46     150/ 18/ 28   N/A
CHAMBERS ISLAND  0040   48     120/ 12/ 20 1012.2F
MENOMINEE LKSHOR 0030   43     150/ 13/ 18 1012.1F
$$




USA.gov is the U.S. government's official web portal to all federal, state and local government web resources and services.